Weather History for Canberra, Capital Territory

Change the Weather History Date:

Friday, December 13, 2013

  Actual Average Record
Temperature  
Mean Temperature 62 °F -  
Max Temperature 82 °F 80 °F - ()
Min Temperature 42 °F 53 °F - ()
Degree Days  
Heating Degree Days 3    
Growing Degree Days 12 (Base 50)    
Moisture  
Dew Point 41 °F    
Average Humidity 44    
Maximum Humidity 81    
Minimum Humidity 11    
Precipitation  
Precipitation 0.00 in 0.07 in - ()
Sea Level Pressure  
Sea Level Pressure 29.89 in    
Wind  
Wind Speed 5 mph ()    
Max Wind Speed 17 mph    
Max Gust Speed 29 mph    
Visibility 6.2 miles    
Events      
T = Trace of Precipitation, MM = Missing Value Source: Averaged Metar Reports

Daily Weather History Graph

Daily Weather History Graph

Search for Another Location

Airport:

Trip Planner

Search our weather history database for the weather conditions in past years. The results will help you decide how hot, cold, wet, or windy it might be!

Date:

Astronomy

Dec. 13, 2013 Rise Set
Actual Time 5:42 AM AEDT 8:12 PM AEDT
Civil Twilight 5:12 AM AEDT 8:42 PM AEDT
Nautical Twilight 4:35 AM AEDT 9:19 PM AEDT
Astronomical Twilight 3:54 AM AEDT 10:00 PM AEDT
Moon 4:23 PM AEDT (12/13) 2:44 AM AEDT (12/13)
Length of Visible Light 15h 30m
Length of Day
14h 30m
Waxing Gibbous, 83% of the Moon is Illuminated
Dec 13
Waxing Gibbous
Dec 17
Full
Dec 26
Last Quarter
Jan 1
New
Jan 8
First Quarter

Hourly Weather History & Observations

Time (AEDT) Temp. Windchill Dew Point Humidity Pressure Visibility Wind Dir Wind Speed Gust Speed Precip Events Conditions
12:00 AM 53 °F - 39 °F 47% 29.85 in - NW 2.3 mph - -  
12:00 AM 53.6 °F - 39.2 °F 58% 29.89 in 6.2 mi NW 2.3 mph - N/A   Unknown
12:30 AM 51.8 °F - 37.4 °F 58% 29.89 in 6.2 mi SE 6.9 mph - N/A   Unknown
1:00 AM 51.8 °F - 39.2 °F 62% 29.89 in 6.2 mi ESE 4.6 mph - N/A   Unknown
1:30 AM 50.0 °F - 39.2 °F 66% 29.89 in 6.2 mi Calm Calm - N/A   Unknown
2:00 AM 50 °F - 39 °F 55% 29.83 in - Calm Calm - -  
2:00 AM 50.0 °F - 39.2 °F 66% 29.89 in 6.2 mi Calm Calm - N/A   Unknown
2:30 AM 48.2 °F - 39.2 °F 71% 29.89 in 6.2 mi Calm Calm - N/A   Unknown
3:00 AM 48 °F - 39 °F 61% 29.83 in - Calm Calm - -  
3:00 AM 48.2 °F - 39.2 °F 71% 29.89 in 6.2 mi Calm Calm - N/A   Unknown
3:30 AM 46.4 °F - 37.4 °F 71% 29.89 in 6.2 mi Calm Calm - N/A   Unknown
4:00 AM 44.6 °F - 37.4 °F 76% 29.89 in 6.2 mi Calm Calm - N/A   Unknown
4:30 AM 48.2 °F - 41.0 °F 76% 29.89 in - Calm Calm - N/A   Clear
5:00 AM 44 °F - 36 °F 66% 29.85 in - NNW 3.5 mph - -  
5:00 AM 44.6 °F 43.1 °F 35.6 °F 71% 29.89 in - NNW 3.5 mph - N/A   Clear
5:30 AM 44.6 °F - 39.2 °F 81% 29.92 in - Calm Calm - N/A   Clear
6:00 AM 44 °F - 38 °F 73% 29.87 in - North 3.5 mph - -  
6:00 AM 44.6 °F 43.1 °F 37.4 °F 76% 29.92 in - North 3.5 mph - N/A   Clear
6:30 AM 44.6 °F 42.2 °F 39.2 °F 81% 29.92 in - North 4.6 mph - N/A   Clear
7:00 AM 50.0 °F - 42.8 °F 76% 29.95 in - NW 1.2 mph - N/A   Clear
7:30 AM 55.4 °F - 48.2 °F 77% 29.95 in - WSW 2.3 mph - N/A   Clear
8:00 AM 59 °F - 48 °F 58% 29.89 in - SE 1.2 mph - -  
8:00 AM 59.0 °F - 48.2 °F 67% 29.95 in - SE 1.2 mph - N/A   Clear
8:30 AM 62.6 °F - 50.0 °F 63% 29.95 in - WSW 1.2 mph - N/A   Clear
9:00 AM 64 °F - 48 °F 46% 29.90 in - NW 4.6 mph - -  
9:00 AM 64.4 °F - 48.2 °F 56% 29.95 in - NW 4.6 mph - N/A   Clear
9:30 AM 68.0 °F - 48.2 °F 49% 29.95 in - WNW 5.8 mph - N/A   Clear
10:00 AM 69.8 °F - 46.4 °F 43% 29.95 in - West 6.9 mph - N/A   Clear
10:30 AM 73.4 °F - 39.2 °F 29% 29.95 in - NW 12.7 mph - N/A   Clear
11:00 AM 75 °F - 38 °F 16% 29.88 in - WNW 9.2 mph - -  
11:00 AM 75.2 °F - 37.4 °F 25% 29.92 in - WNW 9.2 mph - N/A   Clear
11:30 AM 75.2 °F - 33.8 °F 22% 29.92 in - NW 15.0 mph - N/A   Clear
12:00 PM 78 °F - 36 °F 12% 29.87 in - NNW 13.8 mph - -  
12:00 PM 77.0 °F - 35.6 °F 22% 29.92 in - NNW 13.8 mph - N/A   Clear
12:30 PM 77.0 °F - 39.2 °F 26% 29.92 in - NW 12.7 mph - N/A   Clear
1:00 PM 78.8 °F - 39.2 °F 24% 29.92 in - NNW 11.5 mph - N/A   Clear
1:38 PM 80.6 °F - 37.4 °F 21% 29.89 in - West 17.3 mph 28.8 mph N/A   Clear
2:00 PM 81 °F - 37 °F 12% 29.83 in - NW 15.0 mph - -  
2:00 PM 80.6 °F - 37.4 °F 21% 29.89 in - NW 15.0 mph - N/A   Clear
2:30 PM 82.4 °F - 39.2 °F 21% 29.86 in - WNW 13.8 mph - N/A   Clear
3:00 PM 82 °F - 37 °F 11% 29.82 in - West 15.0 mph - -  
3:00 PM 82.4 °F - 37.4 °F 20% 29.86 in - West 15.0 mph - N/A   Clear
3:30 PM 82.4 °F - 41.0 °F 23% 29.86 in - West 11.5 mph - N/A   Clear
4:00 PM 82.4 °F - 41.0 °F 23% 29.86 in - West 12.7 mph - N/A   Clear
4:30 PM 82.4 °F - 39.2 °F 21% 29.86 in - West 13.8 mph - N/A   Clear
5:00 PM 82 °F - 40 °F 13% 29.79 in - West 13.8 mph - -  
5:00 PM 82.4 °F - 39.2 °F 21% 29.86 in - West 13.8 mph - N/A   Clear
5:30 PM 82.4 °F - 39.2 °F 21% 29.86 in - WNW 15.0 mph - N/A   Clear
6:00 PM 81 °F - 40 °F 14% 29.80 in - WNW 13.8 mph - -  
6:00 PM 80.6 °F - 39.2 °F 23% 29.86 in - WNW 13.8 mph - N/A   Clear
6:30 PM 80.6 °F - 41.0 °F 24% 29.86 in - WNW 12.7 mph - N/A   Clear
7:00 PM 78.8 °F - 39.2 °F 24% 29.86 in - WNW 12.7 mph - N/A   Clear
7:30 PM 77.0 °F - 39.2 °F 26% 29.86 in - NW 12.7 mph - N/A   Clear
8:00 PM 76 °F - 40 °F 17% 29.82 in - WNW 10.4 mph - -  
8:00 PM 75.2 °F - 39.2 °F 27% 29.89 in - WNW 10.4 mph - N/A   Clear
8:30 PM 73.4 °F - 41.0 °F 31% 29.89 in - WNW 10.4 mph - N/A   Clear
9:00 PM 69 °F - 40 °F 24% 29.84 in - NW 8.1 mph - -  
9:00 PM 69.8 °F - 41.0 °F 35% 29.89 in 6.2 mi NW 8.1 mph - N/A   Unknown
9:30 PM 69.8 °F - 41.0 °F 35% 29.89 in 6.2 mi NNW 5.8 mph - N/A   Unknown
10:00 PM 64.4 °F - 41.0 °F 42% 29.92 in 6.2 mi NNE 3.5 mph - N/A   Unknown
10:30 PM 64.4 °F - 48.2 °F 56% 29.92 in 6.2 mi East 10.4 mph - N/A   Unknown
11:00 PM 65 °F - 56 °F 64% 29.89 in - ESE 12.7 mph - -  
11:00 PM 64.4 °F - 55.4 °F 73% 29.95 in 6.2 mi ESE 12.7 mph - N/A   Unknown
11:30 PM 64.4 °F - 57.2 °F 77% 29.95 in 6.2 mi East 8.1 mph - N/A   Unknown